Wind_Speed
23 23 23 23 23 23 22 22 22 20 20 20 21 22 23 23 23 24 22 21 21 22 22 22 22 23 23 23 23 23 23 23 23 23 23 23 22 22 23 22 22 22 21 20 19 18 18 18 17
24 24 24 25 25 23 24 25 23 22 21 22 23 24 25 25 24 24 24 23 24 24 24 25 25 25 25 25 25 25 25 25 25 25 25 25 24 24 24 24 24 24 23 22 22 21 20 19 19
25 25 25 25 25 25 26 25 23 23 24 25 25 26 26 25 25 26 26 26 27 27 27 27 27 28 28 28 28 28 28 28 28 28 28 27 27 27 26 26 26 25 25 25 25 24 22 22 21
26 27 27 26 26 26 27 26 24 25 26 26 27 27 27 27 27 28 28 29 29 29 29 30 30 30 30 30 30 31 30 30 30 30 29 30 29 29 29 28 28 28 27 27 26 26 25 24 24
26 27 28 27 27 28 27 26 26 27 27 27 28 28 28 28 29 30 31 31 32 32 32 33 33 33 34 34 34 34 33 33 33 32 32 32 32 31 31 31 30 30 30 29 29 27 27 26 25
26 27 27 27 27 28 27 27 27 28 28 28 29 30 29 29 30 31 32 33 34 34 35 35 36 36 36 36 37 37 36 36 36 36 35 35 35 35 34 34 34 33 33 32 31 30 28 27 27
24 25 26 26 27 27 26 27 28 28 29 28 30 31 30 30 31 32 33 34 35 35 36 36 37 37 38 39 39 39 40 39 39 39 38 38 37 37 37 37 37 36 36 35 35 33 32 30 29
23 24 24 25 26 27 25 27 27 29 29 29 30 31 30 30 32 33 34 35 35 36 37 37 38 38 39 40 40 41 41 41 41 41 41 41 40 40 40 40 40 39 39 38 37 37 35 34 33
23 23 23 24 25 25 25 26 27 28 29 29 30 31 30 31 32 33 34 34 35 36 37 37 38 39 40 40 41 42 43 43 44 44 44 43 43 43 43 42 42 42 41 41 41 40 39 38 36
22 23 23 23 24 25 25 25 26 27 27 28 29 30 31 32 32 33 34 35 36 37 38 39 40 41 41 42 42 43 44 44 45 46 46 46 46 46 45 45 45 45 44 44 44 43 43 41 40
21 21 21 23 24 24 25 25 25 26 27 27 28 29 30 31 32 33 35 36 37 38 39 40 41 42 43 44 45 45 46 46 47 47 47 47 48 48 48 48 48 48 47 47 46 46 45 44 43
20 20 21 21 22 23 24 24 25 25 26 27 28 29 30 31 32 34 35 37 38 39 41 42 43 45 46 46 47 47 48 48 49 49 49 50 51 51 51 51 51 51 50 50 49 49 48 47 46
20 20 21 21 22 23 24 24 24 25 26 27 28 29 30 32 33 34 36 37 39 40 42 43 45 46 47 48 49 50 50 51 51 51 52 52 53 53 53 54 54 54 53 53 52 52 51 51 50
20 20 21 21 22 23 24 24 24 24 27 28 29 30 31 33 34 35 37 38 40 41 43 44 45 46 47 49 50 52 53 53 54 54 54 55 55 55 55 55 56 56 56 55 55 55 54 54 52
20 21 21 22 23 23 24 25 25 25 27 29 30 31 32 33 35 36 37 39 40 41 42 43 45 46 47 49 51 53 54 55 56 57 58 58 58 58 58 58 58 58 58 58 57 57 57 56 55
21 21 22 22 23 24 25 25 26 26 28 29 30 32 33 34 36 37 38 39 40 42 43 44 46 47 48 50 52 54 55 56 57 59 60 60 61 60 60 61 60 60 60 60 60 59 59 58 57
21 22 22 23 23 24 25 25 26 27 28 30 31 32 34 35 36 37 39 40 42 43 45 47 48 49 50 52 53 55 56 58 59 61 62 63 63 63 63 63 63 63 63 62 61 61 61 61 60
22 23 23 24 24 24 26 26 27 28 29 30 32 33 35 36 37 38 40 41 43 44 46 48 49 51 52 53 55 56 57 59 60 62 62 63 65 66 66 65 65 64 64 63 63 63 63 63 62
24 25 24 25 26 26 27 27 27 29 31 32 33 34 35 37 38 39 41 42 44 46 47 49 50 51 53 54 55 56 57 58 59 60 62 63 64 66 66 66 66 65 64 63 63 63 63 63 63
26 27 27 27 28 29 29 29 29 30 32 33 34 36 37 38 39 40 42 44 46 47 48 49 50 51 52 53 54 54 54 56 57 58 59 60 62 63 64 64 64 63 64 63 63 63 64 63 63
28 29 29 30 30 31 32 31 30 31 33 34 35 36 38 39 40 41 43 45 46 47 48 49 50 51 51 52 52 51 52 54 55 56 56 57 59 59 60 62 63 63 63 62 62 63 64 62 62
30 30 31 31 32 32 33 35 31 32 33 35 36 37 38 39 41 43 44 45 47 48 49 50 51 51 51 50 50 51 51 52 53 54 53 55 56 56 57 59 61 61 62 62 62 62 63 63 62
32 32 32 33 34 34 34 37 35 35 35 36 37 38 39 40 42 43 45 46 47 48 49 50 50 50 49 49 50 50 49 50 50 52 52 53 53 54 54 56 59 60 61 60 60 61 61 62 62
34 34 35 36 36 37 35 37 38 37 37 38 39 39 41 42 43 44 46 47 47 48 49 49 48 49 49 49 49 48 48 48 49 50 50 51 51 52 53 54 56 58 59 59 59 60 61 60 61
36 36 37 39 39 39 38 39 39 39 39 39 40 41 42 43 44 45 46 47 48 49 49 49 48 48 48 48 46 46 47 48 48 48 48 49 49 50 51 52 54 56 58 59 59 60 61 60 60
38 38 39 41 42 42 41 41 40 40 40 41 42 43 44 45 46 47 47 48 49 50 49 48 49 48 48 47 46 47 47 48 48 47 47 47 48 49 50 52 54 55 57 58 59 60 61 60 60
40 39 39 41 43 44 43 43 42 42 42 42 44 45 46 47 48 48 49 49 50 50 49 49 48 47 47 46 46 47 47 47 47 47 47 47 48 48 51 51 52 54 55 56 57 58 59 60 60
42 41 41 42 44 45 45 44 43 44 43 44 45 46 47 48 49 50 50 50 50 49 48 48 47 47 46 45 46 47 47 46 46 45 44 46 47 49 50 51 51 53 54 53 54 57 59 60 59
42 42 43 44 44 46 47 45 44 45 45 46 46 47 48 49 50 50 50 51 51 51 49 47 47 47 47 48 47 47 46 44 45 45 46 46 46 48 49 50 51 51 51 52 52 53 55 58 58
44 43 43 44 45 46 47 45 44 45 46 46 47 48 49 50 51 51 51 51 52 51 50 49 48 48 48 48 48 47 47 47 47 47 48 48 47 46 47 49 50 51 51 51 49 49 52 54 54
Wind_Direction
246 246 246 246 247 248 248 248 247 247 247 247 248 249 250 252 254 257 258 256 254 253 252 252 252 252 252 252 252 252 251 251 250 249 249 249 250 251 252 252 252 251 251 252 253 254 255 255 255
247 247 247 247 248 249 248 248 247 247 248 248 249 250 252 253 255 258 258 257 255 254 254 254 254 253 253 254 254 253 253 253 252 252 251 250 250 251 252 253 253 251 251 251 252 253 254 255 257
248 248 247 248 249 249 249 249 250 249 250 250 251 253 254 255 257 259 259 258 257 256 256 256 256 256 255 255 255 255 255 255 254 254 253 252 252 252 253 254 254 254 253 252 252 253 253 255 257
248 248 248 248 249 249 251 251 250 250 251 253 254 254 256 256 257 259 259 259 259 259 259 259 258 257 257 256 256 256 255 255 255 255 254 253 253 253 253 254 254 255 255 254 254 255 254 254 256
249 248 248 249 249 249 251 252 252 252 253 254 255 256 256 258 259 259 260 261 261 261 260 260 260 259 258 258 257 257 256 256 256 255 255 254 254 254 254 254 255 255 255 256 255 255 256 254 255
249 248 248 248 248 249 250 252 253 254 254 255 257 258 257 259 260 261 262 262 262 262 262 261 261 260 260 259 259 258 257 256 256 256 256 255 255 255 254 254 255 255 255 256 256 255 256 256 254
250 249 249 249 249 250 251 253 254 255 256 257 258 259 260 262 262 262 262 263 263 263 263 262 262 262 262 261 260 259 258 258 257 256 256 256 256 255 256 256 255 256 257 257 256 256 256 255 256
251 250 250 250 251 252 253 254 255 257 258 259 260 261 263 263 263 264 263 264 264 264 264 264 264 263 262 262 261 260 259 258 258 257 257 257 256 256 256 256 256 256 257 258 257 257 256 256 256
252 251 250 251 253 255 255 256 257 259 260 260 262 264 265 265 265 265 265 265 266 266 266 265 265 264 263 262 262 261 260 259 258 257 257 257 257 257 256 257 257 256 257 258 258 258 258 258 257
252 252 252 253 254 256 256 257 258 260 261 262 264 266 267 268 267 267 267 267 267 267 267 267 267 265 264 263 262 261 261 260 259 258 258 258 257 257 257 257 257 257 257 257 258 259 259 259 258
253 254 254 255 256 257 258 259 260 262 263 265 267 268 269 270 270 270 270 270 271 270 270 269 268 267 265 264 263 262 261 260 259 259 259 258 258 257 257 256 257 257 256 257 257 258 259 259 259
253 254 256 257 258 259 260 261 262 265 267 268 269 271 272 272 271 272 272 273 273 273 272 271 271 269 267 266 265 263 262 261 260 260 260 260 259 258 257 257 257 257 256 256 257 258 258 259 258
255 256 257 258 260 261 261 263 265 267 269 270 272 274 275 274 274 275 275 276 276 276 275 274 272 270 268 267 267 265 264 263 262 261 261 261 259 258 258 257 257 257 257 256 256 257 257 258 258
257 257 259 260 261 262 263 265 267 268 270 272 274 276 277 277 277 278 279 279 279 278 278 277 276 274 270 268 268 267 266 264 263 261 262 261 260 260 259 258 257 257 257 256 256 256 256 256 257
260 261 261 262 264 265 266 268 270 271 273 275 276 277 279 280 280 280 281 281 281 281 281 280 278 276 273 272 271 269 267 266 264 263 263 262 260 260 259 258 258 257 257 257 256 256 256 256 255
264 264 264 264 266 268 269 271 273 274 276 278 280 281 282 283 284 283 283 283 283 283 283 283 281 278 276 275 274 272 269 267 266 265 264 263 261 260 259 258 258 257 257 257 257 257 256 256 255
268 268 268 268 269 271 273 275 277 278 279 282 283 284 285 286 287 287 286 286 286 286 285 284 283 281 279 277 276 274 271 269 268 267 266 264 262 261 259 258 258 257 257 257 257 257 257 256 255
269 270 271 272 272 274 276 278 280 281 283 285 286 287 288 288 289 290 289 288 288 288 288 286 285 284 281 278 277 276 274 272 270 269 268 266 264 261 259 258 258 257 256 256 256 257 256 255 255
270 272 273 274 276 277 278 280 282 284 286 287 288 289 290 291 291 291 292 291 291 290 290 289 287 287 284 281 279 277 275 273 273 271 268 266 265 262 259 258 257 257 256 255 255 256 256 255 254
270 272 274 275 277 278 279 281 283 285 287 288 289 291 291 292 292 293 294 294 293 292 291 291 290 290 287 285 283 280 277 276 275 273 271 267 265 263 259 257 256 256 256 255 255 255 255 254 254
271 273 275 277 277 281 282 282 283 285 287 289 291 292 293 293 293 294 296 296 296 295 294 293 292 291 290 288 285 282 281 279 276 273 271 268 266 263 260 257 255 255 256 255 255 255 254 254 253
273 275 277 278 280 281 284 285 284 286 288 290 291 293 294 294 295 296 297 298 298 297 297 295 294 293 291 289 287 285 283 280 276 273 272 269 266 264 262 259 257 256 256 255 254 254 253 253 252
274 275 277 279 281 282 284 286 287 289 290 291 292 294 295 295 297 298 299 300 299 299 298 298 296 294 292 290 290 286 284 282 279 276 273 270 267 265 263 261 259 257 257 255 253 252 252 252 252
274 275 278 279 281 282 285 286 289 291 292 293 293 294 296 296 298 300 301 302 301 300 300 299 298 296 293 292 290 288 285 283 281 279 275 272 268 265 263 262 260 258 257 255 253 252 252 252 251
273 276 279 280 281 283 286 287 290 292 293 293 294 295 296 297 299 300 301 302 302 302 301 300 299 297 296 294 291 289 287 286 284 281 277 274 270 265 264 264 261 259 258 255 253 252 252 251 251
272 275 278 281 283 285 286 288 290 292 293 294 295 296 297 298 299 301 302 302 303 304 302 301 300 298 297 295 293 291 290 288 286 283 279 276 272 267 265 265 262 259 258 256 254 253 251 250 250
272 274 277 279 281 282 284 287 289 291 293 295 295 296 298 299 300 301 302 304 305 304 303 302 301 299 298 297 295 292 290 289 287 284 280 277 273 269 266 266 264 261 259 257 255 254 251 250 250
272 274 276 278 280 282 284 287 289 291 293 295 295 296 297 299 300 302 303 305 306 305 303 302 300 300 299 300 298 295 292 290 288 284 281 279 275 271 269 267 264 261 260 257 255 253 251 249 248
271 273 275 277 278 281 284 286 289 291 293 294 295 296 298 300 301 302 304 305 306 305 304 302 300 298 297 298 297 294 292 291 290 286 284 282 278 273 269 267 264 261 258 256 254 253 250 248 246
270 272 274 276 278 279 282 285 288 290 292 293 294 296 298 299 301 302 303 305 306 305 303 301 300 299 298 299 297 295 293 291 290 289 286 283 279 274 271 268 263 259 256 256 254 252 250 247 245
Height
5808 5809 5811 5813 5815 5816 5818 5819 5820 5821 5823 5825 5825 5826 5827 5829 5831 5833 5834 5834 5835 5836 5837 5838 5839 5839 5840 5841 5842 5844 5845 5846 5847 5848 5849 5849 5850 5851 5852 5853 5854 5854 5855 5856 5856 5857 5857 5858 5858
5804 5805 5807 5809 5810 5812 5814 5814 5816 5818 5820 5821 5821 5822 5823 5825 5826 5827 5829 5830 5830 5832 5833 5833 5834 5835 5836 5837 5838 5839 5840 5842 5843 5844 5845 5846 5846 5847 5848 5849 5850 5851 5852 5852 5853 5854 5854 5855 5855
5799 5801 5803 5805 5806 5808 5808 5810 5812 5814 5815 5816 5817 5818 5820 5821 5823 5823 5824 5825 5826 5827 5828 5829 5830 5831 5832 5833 5834 5835 5836 5837 5838 5839 5840 5841 5842 5843 5844 5845 5846 5847 5848 5849 5850 5850 5851 5852 5852
5795 5797 5799 5801 5802 5803 5803 5806 5808 5809 5810 5812 5813 5814 5816 5817 5818 5818 5819 5820 5821 5822 5823 5824 5825 5826 5826 5827 5828 5830 5831 5832 5833 5834 5835 5837 5838 5839 5840 5841 5842 5843 5844 5845 5845 5846 5847 5848 5849
5790 5792 5794 5795 5797 5797 5799 5801 5803 5804 5805 5807 5808 5809 5811 5812 5812 5813 5814 5814 5815 5816 5817 5818 5819 5820 5821 5822 5823 5824 5825 5826 5827 5828 5830 5831 5832 5833 5834 5836 5837 5838 5839 5840 5841 5842 5843 5843 5844
5785 5787 5789 5790 5791 5793 5795 5796 5798 5799 5800 5801 5802 5804 5805 5806 5807 5807 5808 5808 5809 5810 5811 5811 5812 5813 5814 5815 5816 5817 5818 5820 5821 5822 5823 5825 5826 5827 5829 5830 5831 5832 5833 5834 5836 5837 5838 5839 5840
5781 5782 5783 5785 5786 5788 5790 5791 5792 5793 5795 5796 5797 5797 5799 5801 5801 5801 5801 5802 5802 5803 5804 5805 5805 5806 5807 5808 5809 5810 5811 5812 5814 5815 5816 5818 5819 5820 5822 5823 5825 5826 5827 5828 5829 5831 5832 5833 5835
5775 5777 5778 5779 5781 5783 5785 5786 5787 5788 5789 5791 5791 5792 5794 5795 5794 5794 5795 5795 5795 5796 5797 5797 5798 5799 5799 5800 5801 5802 5803 5804 5806 5807 5809 5810 5811 5813 5815 5816 5817 5819 5821 5822 5823 5825 5826 5827 5829
5770 5773 5773 5775 5776 5778 5780 5780 5782 5782 5783 5784 5785 5786 5787 5787 5787 5787 5788 5788 5789 5789 5789 5790 5790 5791 5791 5792 5793 5794 5795 5796 5797 5799 5800 5802 5803 5805 5807 5808 5810 5811 5813 5815 5816 5817 5819 5821 5822
5766 5767 5769 5770 5771 5773 5774 5775 5776 5777 5778 5778 5779 5779 5780 5780 5780 5781 5781 5781 5781 5782 5782 5782 5782 5782 5783 5783 5784 5785 5786 5787 5788 5790 5791 5793 5795 5796 5798 5800 5801 5803 5805 5807 5808 5810 5811 5813 5815
5761 5763 5764 5765 5766 5767 5768 5769 5770 5771 5772 5772 5773 5773 5773 5773 5773 5773 5773 5773 5773 5773 5773 5773 5773 5773 5773 5774 5775 5775 5776 5777 5779 5780 5782 5783 5785 5787 5788 5790 5792 5794 5796 5798 5799 5801 5803 5805 5807
5757 5758 5759 5760 5760 5761 5763 5764 5765 5765 5766 5766 5766 5766 5766 5766 5766 5766 5766 5765 5765 5765 5764 5763 5763 5763 5763 5763 5764 5765 5766 5767 5768 5769 5771 5773 5774 5776 5778 5779 5781 5783 5785 5788 5790 5792 5794 5796 5797
5752 5753 5754 5755 5755 5756 5757 5758 5759 5760 5760 5760 5760 5760 5759 5759 5759 5758 5758 5757 5756 5755 5754 5753 5752 5752 5752 5752 5752 5753 5754 5755 5756 5758 5760 5761 5762 5764 5766 5768 5770 5772 5774 5776 5779 5781 5783 5785 5787
5747 5748 5749 5750 5750 5751 5752 5752 5754 5755 5753 5753 5753 5753 5752 5752 5751 5750 5749 5748 5746 5745 5744 5742 5741 5740 5740 5740 5740 5740 5741 5742 5743 5744 5746 5747 5749 5751 5753 5755 5757 5760 5762 5764 5767 5769 5771 5774 5776
5742 5743 5744 5745 5745 5746 5746 5747 5748 5748 5747 5747 5746 5746 5745 5744 5743 5741 5740 5738 5737 5735 5733 5732 5730 5729 5728 5727 5727 5727 5728 5728 5729 5731 5732 5733 5735 5737 5739 5742 5744 5746 5748 5751 5754 5756 5759 5762 5764
5737 5738 5739 5740 5739 5740 5742 5742 5741 5741 5740 5739 5739 5738 5737 5736 5734 5732 5730 5728 5727 5725 5723 5721 5719 5717 5716 5715 5714 5713 5713 5714 5714 5715 5716 5718 5719 5721 5723 5726 5729 5731 5734 5737 5739 5742 5745 5748 5751
5732 5732 5733 5734 5734 5734 5734 5735 5734 5734 5733 5732 5731 5730 5729 5727 5725 5723 5721 5719 5717 5714 5712 5710 5707 5705 5703 5701 5700 5699 5698 5698 5698 5699 5699 5700 5701 5704 5706 5709 5712 5715 5718 5721 5724 5727 5730 5733 5737
5727 5727 5727 5727 5727 5728 5727 5728 5727 5726 5726 5725 5724 5722 5720 5719 5717 5714 5711 5709 5706 5703 5700 5697 5694 5692 5689 5687 5685 5683 5683 5682 5681 5681 5681 5681 5682 5685 5688 5691 5694 5697 5700 5704 5707 5710 5713 5717 5721
5720 5720 5721 5721 5720 5721 5721 5721 5721 5719 5718 5717 5716 5714 5712 5710 5707 5705 5701 5698 5695 5692 5688 5684 5681 5677 5674 5671 5669 5667 5666 5665 5664 5663 5662 5663 5664 5666 5669 5672 5676 5679 5682 5687 5690 5694 5697 5701 5705
5714 5714 5714 5714 5713 5713 5713 5714 5713 5712 5711 5709 5708 5705 5703 5701 5698 5695 5692 5688 5684 5680 5676 5672 5667 5663 5658 5655 5652 5650 5649 5648 5647 5645 5644 5644 5645 5647 5649 5653 5657 5661 5665 5669 5673 5677 5681 5685 5689
5707 5707 5707 5707 5706 5705 5705 5707 5706 5705 5703 5701 5699 5697 5694 5691 5689 5686 5682 5678 5673 5669 5664 5659 5654 5649 5644 5640 5636 5634 5633 5632 5630 5628 5627 5627 5627 5629 5632 5636 5640 5643 5647 5652 5656 5660 5664 5668 5673
5700 5700 5699 5699 5698 5698 5698 5696 5699 5697 5695 5693 5691 5688 5685 5682 5679 5676 5672 5667 5662 5657 5652 5646 5641 5636 5631 5626 5622 5619 5617 5616 5613 5612 5611 5612 5612 5613 5615 5619 5622 5626 5629 5634 5639 5643 5647 5651 5656
5692 5692 5691 5690 5689 5690 5690 5688 5690 5688 5686 5684 5682 5679 5676 5673 5669 5665 5661 5656 5651 5645 5640 5634 5628 5623 5618 5613 5608 5605 5602 5600 5598 5596 5596 5596 5596 5598 5600 5603 5606 5609 5613 5617 5621 5626 5630 5634 5640
5683 5684 5683 5681 5681 5681 5682 5680 5679 5679 5677 5675 5673 5670 5666 5663 5659 5655 5650 5645 5639 5634 5628 5622 5617 5611 5605 5600 5596 5591 5588 5586 5583 5581 5581 5581 5581 5583 5585 5587 5590 5593 5596 5600 5605 5609 5613 5618 5623
5675 5675 5674 5672 5671 5672 5672 5670 5671 5669 5667 5665 5663 5660 5656 5653 5649 5645 5640 5634 5629 5623 5616 5611 5605 5599 5592 5587 5583 5579 5575 5573 5570 5568 5567 5567 5567 5569 5571 5573 5575 5577 5580 5584 5588 5592 5597 5602 5607
5666 5666 5666 5664 5662 5661 5661 5660 5662 5660 5657 5655 5652 5649 5646 5642 5638 5634 5629 5623 5618 5611 5605 5599 5593 5587 5581 5576 5571 5567 5563 5560 5557 5555 5553 5553 5553 5555 5557 5558 5560 5562 5564 5568 5571 5576 5581 5585 5591
5656 5657 5657 5655 5652 5651 5651 5652 5651 5650 5647 5645 5642 5638 5635 5631 5627 5623 5618 5612 5606 5600 5594 5587 5581 5575 5570 5564 5560 5556 5552 5548 5544 5542 5540 5540 5540 5541 5542 5543 5544 5546 5548 5551 5555 5559 5564 5569 5575
5647 5646 5646 5644 5642 5641 5641 5642 5641 5639 5637 5635 5631 5628 5624 5621 5616 5612 5606 5601 5595 5589 5582 5576 5570 5565 5559 5554 5549 5544 5540 5537 5533 5530 5528 5527 5527 5527 5527 5527 5528 5530 5533 5535 5538 5543 5548 5552 5559
5637 5637 5635 5634 5633 5632 5630 5634 5631 5629 5626 5623 5620 5617 5613 5609 5605 5600 5595 5590 5584 5577 5571 5565 5560 5554 5549 5544 5539 5534 5530 5526 5522 5519 5516 5515 5514 5513 5512 5512 5513 5515 5517 5519 5522 5527 5532 5537 5543
5625 5626 5625 5625 5623 5621 5620 5625 5621 5619 5615 5612 5609 5606 5602 5598 5594 5589 5584 5578 5572 5566 5560 5554 5549 5543 5538 5533 5528 5524 5519 5515 5511 5508 5504 5501 5500 5498 5498 5497 5497 5499 5502 5504 5507 5511 5516 5522 5528